Location: Alexandria
(38.8050°N, 77.0470°W)
Time: 17:53:15
(UTC-05:00)

OTV 5 (USA 277) - Pass Details

Date: 12 November 2017
Orbit: 404 x 417 km, 43.0° (Epoch: 07 September)

Event Time Altitude Azimuth Distance (km) Brightness Sun altitude
Exits shadow 05:17:49 46° 328° (NNW) 549 ? -17.6°
Maximum altitude 05:18:07 48° 348° (NNW) 534 ? -17.6°
Drops below altitude 10° 05:21:19 10° 64° (ENE) 1,456 ? -17.0°
Sets 05:23:28 0° 70° (ENE) 2,317 ? -16.6°
